This is the latest recevied weather packets stored in our database for station/object OK3MS-5. If no packets are shown the sender has not sent any weather packets the latest 10 day(s).
| Time | Temp. | Humidity | Pressure | Rain* | Wind** | Luminosity | Snow |
|---|---|---|---|---|---|---|---|
| 1787657404 | 22.78° C | 50% | 1010 hPa | 0 mm | - | 359 W/m² | - |
| 1787657105 | 22.78° C | 53% | 1009.9 hPa | 0 mm | - | 350 W/m² | - |
| 1787656803 | 22.78° C | 51% | 1010 hPa | 0 mm | - | 368 W/m² | - |
| 1787656503 | 22.22° C | 50% | 1010.1 hPa | 0 mm | - | 381 W/m² | - |
| 1787656204 | 22.78° C | 51% | 1010.1 hPa | 0 mm | - | 417 W/m² | - |
| 1787655903 | 22.78° C | 52% | 1009.9 hPa | 0 mm | - | 394 W/m² | - |
| 1787655604 | 22.78° C | 51% | 1010 hPa | 0 mm | - | 432 W/m² | - |
| 1787655306 | 22.22° C | 52% | 1010 hPa | 0 mm | - | 426 W/m² | - |
| 1787655004 | 22.22° C | 52% | 1010.1 hPa | 0 mm | - | 397 W/m² | - |
| 1787654704 | 22.22° C | 52% | 1010.1 hPa | 0 mm | - | 438 W/m² | - |
| 1787654404 | 22.22° C | 52% | 1010 hPa | 0 mm | - | 393 W/m² | - |
| 1787654104 | 22.22° C | 52% | 1010.3 hPa | 0 mm | - | 443 W/m² | - |
| 1787653804 | 22.22° C | 52% | 1010.1 hPa | 0 mm | - | 462 W/m² | - |
| 1787653503 | 22.22° C | 52% | 1010.3 hPa | 0 mm | - | 518 W/m² | - |
| 1787653206 | 21.67° C | 53% | 1010.3 hPa | 0 mm | - | 553 W/m² | - |
| 1787652903 | 21.11° C | 54% | 1010.4 hPa | 0 mm | - | 529 W/m² | - |
| 1787652603 | 21.11° C | 54% | 1010.4 hPa | 0 mm | - | 357 W/m² | - |
| 1787652305 | 21.11° C | 53% | 1010.4 hPa | 0 mm | - | 306 W/m² | - |
| 1787652003 | 21.11° C | 54% | 1010.3 hPa | 0 mm | - | 335 W/m² | - |
| 1787651705 | 21.11° C | 55% | 1010.5 hPa | 0 mm | - | 366 W/m² | - |
| 1787651405 | 21.11° C | 55% | 1010.5 hPa | 0 mm | - | 402 W/m² | - |
| 1787651103 | 21.11° C | 54% | 1010.6 hPa | 0 mm | - | 382 W/m² | - |
| 1787650802 | 21.11° C | 54% | 1010.5 hPa | 0 mm | - | 431 W/m² | - |
| 1787650503 | 20.56° C | 55% | 1010.6 hPa | 0 mm | - | 446 W/m² | - |
| 1787650203 | 20.56° C | 55% | 1010.5 hPa | 0 mm | - | 478 W/m² | - |
* Rain latest hour (hover to see other rain measurements)
** Current wind speed in m/s (hover to see current wind gust speed)